{"data":{"norad_id":57069,"intl_designator":"2023-088X","name":"STARLINK-5821","alt_names":[],"object_type":"PAYLOAD","status":"ACTIVE","operator":null,"country":"US","launch_date":"2023-06-22","launch_site_code":"AFWTR","launch_vehicle":null,"mission":null,"orbit_class":"UNKNOWN","rcs_meters":null,"size_class":null,"mass_kg":null,"dimensions":null,"purposes":["comms"],"wikipedia_slug":null,"has_3d_model":false,"image_url":null,"decayed_at":null,"tle_current":{"epoch":"2026-05-25T01:09:53.756640Z","epoch_age_seconds":67693,"freshness":"FRESH","line1":"1 57069U 23088X   26145.04853885 -.00001650  00000+0 -50460-4 0  9999","line2":"2 57069  43.0055  25.3028 0001070 267.5291  92.5438 15.27562749162004","mean_motion":15.27562749,"eccentricity":0.000107,"inclination_deg":43.0055,"raan_deg":25.3028,"arg_perigee_deg":267.5291,"mean_anomaly_deg":92.5438,"bstar":-5.046e-5,"rev_number":16200,"period_min":94.267813282477,"perigee_km":482.36659978631,"apogee_km":483.83490466529,"semimajor_km":6861.2377522258,"source":"CELESTRAK","updated_at":"2026-05-25T13:38:18.212551Z"}}}